Regional Weather Roundup
Issued by NWS

Home | Current Version | Previous Version | Text Only | Print | Product List | Glossary On
Versions: 1 2 3 4 5 6 7 8 9 10 11 12 13 14 15 16 17 18 19 20 21 22 23 24 25 26 27 28 29 30 31 32 33 34 35 36 37 38 39 40 41 42 43 44 45 46 47 48 49 50
000
ASUS43 KLMK 231402
RWRKY
KENTUCKY REGIONAL WEATHER ROUNDUP
NATIONAL WEATHER SERVICE LOUISVILLE KY
1000 AM EDT THU MAR 23 2017

NOTE "FAIR" INDICATES FEW OR NO CLOUDS BELOW 12,000 FEET
WITH NO SIGNIFICANT WEATHER AND/OR OBSTRUCTIONS TO VISIBILITY.

KYZ001>023-026-027-061>063-070>075-231500-
WESTERN AND SOUTH CENTRAL KENTUCKY

CITY           SKY/WX    TMP DP  RH WIND       PRES   REMARKS
PADUCAH        CLOUDY    38  31  76 E10       30.33F WCI  31
HENDERSON      CLOUDY    39  21  48 SE6       30.38R WCI  35
OWENSBORO        N/A    N/A N/A N/A MISG        N/A
HOPKINSVILLE   CLOUDY    40  26  57 E3        30.34R
BOWLING GREEN  CLOUDY    42  24  49 E6        30.37R
GLASGOW        NOT AVBL
$$

KYZ024-025-028>034-038-045-046-053-231500-
NORTH CENTRAL KENTUCKY

CITY           SKY/WX    TMP DP  RH WIND       PRES   REMARKS
LOUISVILLE/SDF PTSUNNY   39  15  37 E10       30.42F WCI  32
LOUISVILLE/LOU MOSUNNY   38  17  42 E6        30.43S WCI  33
FORT KNOX      CLOUDY    36  18  48 E8        30.37F WCI  30
$$

KYZ035>037-039>044-047>052-055>060-089>105-231500-
NORTHEAST KENTUCKY

CITY           SKY/WX    TMP DP  RH WIND       PRES   REMARKS
LEXINGTON      PTSUNNY   39  15  37 E9        30.41R WCI  33
COVINGTON      CLOUDY    35  15  44 E13       30.43F WCI  26
FRANKFORT      MOSUNNY   38  16  40 E12       30.41R WCI  30
$$

KYZ054-064>069-076>088-106>120-231500-
SOUTHEAST KENTUCKY

CITY           SKY/WX    TMP DP  RH WIND       PRES   REMARKS
JACKSON        SUNNY     38  17  42 E5        30.40S WCI  34
LONDON         SUNNY     41  17  38 E6        30.39S
SOMERSET       SUNNY     41  19  42 E3        30.42R
MIDDLESBORO    SUNNY     47  21  36 CALM      30.41S
MONTICELLO     SUNNY     43  22  43 W8        30.40R
$$




USA.gov is the U.S. government's official web portal to all federal, state and local government web resources and services.